Location: Avon School (historical)
(37.7514°N, 90.2201°W)
Time: 22:04:27
(UTC+00:00)

Vanguard 1 Rocket - All Passes

Search period start: 08 November 2024 00:00
Search period end: 18 November 2024 00:00
Orbit: 651 x 4217 km, 34.3° (Epoch: 07 November)

Date Brightness Start Highest point End Pass type
(mag) Time Alt. Az. Time Alt. Az. Time Alt. Az.
08 Nov - 00:56:54 10° W 01:04:07 33° SSW 01:08:46 10° SSE visible
08 Nov - 16:08:49 10° SSW 16:28:17 30° SE 16:42:24 10° E daylight
08 Nov - 18:36:12 10° SW 18:58:01 57° SSE 19:10:01 10° E daylight
08 Nov - 21:09:09 10° WSW 21:26:17 75° S 21:34:40 10° E daylight
08 Nov - 23:41:48 10° W 23:52:21 54° SSW 23:58:06 10° SE visible
09 Nov - 02:14:02 10° WSW 02:15:51 11° SW 02:17:28 10° SSW visible
09 Nov - 14:57:52 10° S 15:13:23 20° SE 15:26:22 10° E daylight
09 Nov - 17:20:49 10° SW 17:43:24 47° SSE 17:57:24 10° E daylight
09 Nov - 19:52:15 10° WSW 20:12:41 71° S 20:22:59 10° E daylight
09 Nov - 22:25:57 10° W 22:39:59 69° SSW 22:47:00 10° ESE daylight
10 Nov - 00:57:41 10° W 01:04:33 27° SW 01:09:08 10° SSE visible
10 Nov - 13:54:38 10° SE 13:58:34 11° SE 14:02:25 10° ESE daylight
10 Nov - 16:06:48 10° SSW 16:28:26 36° SE 16:43:53 10° E daylight
10 Nov - 18:35:36 10° SW 18:58:27 63° SSE 19:10:56 10° E daylight
10 Nov - 21:09:17 10° W 21:26:57 76° S 21:35:35 10° E daylight
10 Nov - 23:42:14 10° W 23:52:54 47° SSW 23:58:48 10° SE visible
11 Nov - 14:54:43 10° S 15:13:24 26° SE 15:28:47 10° E daylight
11 Nov - 17:19:47 10° SW 17:43:38 54° SSE 17:58:23 10° E daylight
11 Nov - 19:52:09 10° WSW 20:13:14 75° S 20:23:52 10° E daylight
11 Nov - 22:26:13 10° W 22:40:37 65° SSW 22:47:51 10° ESE daylight
12 Nov - 00:58:39 10° W 01:04:52 21° SW 01:09:13 10° S visible
12 Nov - 13:46:05 10° SSE 13:58:34 16° SE 14:10:12 10° ESE daylight
12 Nov - 16:05:17 10° SSW 16:28:29 43° SSE 16:45:03 10° E daylight
12 Nov - 18:35:12 10° WSW 18:58:51 69° SSE 19:11:48 10° E daylight
12 Nov - 21:09:26 10° W 21:27:35 75° S 21:36:28 10° ESE daylight
12 Nov - 23:42:42 10° W 23:53:21 40° SSW 23:59:22 10° SE visible
13 Nov - 14:52:28 10° SSW 15:13:17 32° SE 15:30:29 10° E daylight
13 Nov - 17:19:02 10° SW 17:43:50 61° SSE 17:59:15 10° E daylight
13 Nov - 19:52:08 10° W 20:13:47 78° S 20:24:45 10° E daylight
13 Nov - 22:26:28 10° W 22:41:10 59° SSW 22:48:37 10° SE daylight
14 Nov - 00:59:57 10° W 01:05:04 16° SW 01:08:53 10° S visible
14 Nov - 13:42:02 10° S 13:58:22 21° SE 14:13:34 10° E daylight
14 Nov - 16:04:08 10° SW 16:28:28 50° SSE 16:46:00 10° E daylight
14 Nov - 18:34:57 10° WSW 18:59:14 74° S 19:12:38 10° E daylight
14 Nov - 21:09:34 10° W 21:28:09 73° SSW 21:37:19 10° ESE daylight
14 Nov - 23:43:13 10° W 23:53:39 33° SW 23:59:45 10° SSE visible
15 Nov - 12:38:49 10° SE 12:43:52 11° SE 12:48:55 10° ESE daylight
15 Nov - 14:50:47 10° SSW 15:13:05 39° SE 15:31:44 10° E daylight
15 Nov - 17:18:32 10° SW 17:44:01 67° SSE 18:00:02 10° E daylight
15 Nov - 19:52:11 10° W 20:14:18 79° S 20:25:36 10° E daylight
15 Nov - 22:26:42 10° W 22:41:36 53° SSW 22:49:17 10° SE daylight
16 Nov - 01:02:04 10° WSW 01:05:07 12° SW 01:07:41 10° SSW visible
16 Nov - 13:39:22 10° S 13:58:01 27° SE 14:15:42 10° E daylight
16 Nov - 16:03:19 10° SW 16:28:25 57° SSE 16:46:49 10° E daylight
16 Nov - 18:34:51 10° WSW 18:59:37 78° S 19:13:26 10° E daylight
16 Nov - 21:09:41 10° W 21:28:40 69° SSW 21:38:06 10° ESE daylight
16 Nov - 23:43:52 10° W 23:53:48 28° SW 23:59:55 10° SSE visible
17 Nov - 12:31:24 10° SSE 12:43:30 16° SE 12:55:52 10° E daylight
17 Nov - 14:49:33 10° SSW 15:12:47 45° SE 15:32:42 10° E daylight
17 Nov - 17:18:14 10° WSW 17:44:12 72° SSE 18:00:47 10° E daylight
17 Nov - 19:52:14 10° W 20:14:47 78° S 20:26:25 10° ESE daylight
17 Nov - 22:26:57 10° W 22:41:53 46° SW 22:49:47 10° SE daylight
